PulseSat

PulseSat

GSAT0215 (GALILEO 19)

Last updated on April 20, 2019, 3:01 a.m. UTC

1 43055U 17079A   19109.43610037 -.00000033  00000-0  00000+0 0  9991
2 43055  56.6082 293.4385 0000399 149.9084 210.0720  1.70473971  8397
UTC
Height (km)
Latitude
Longitude
Inclination
Orbital Period

Next 30 passes for location: Hong Kong

Rise time Rise Azimuth (degrees) Set time Set Azimuth (degrees) Duration Max altitude (degrees)

No matching passes for this satellites

PulseSat

PulseSat is the new satellites software and hardware trackering solution by Pulsely.
Satellite Two Line Element Set source: US Air Force Space Command

Download PulseSat for iOS
© 2017 Pulsely Limited